#timestamp,LO_Frequency,Hit 
1501149615.3,286046990.6,N
1501149635.2,286046991.0,N
1501149655.9,286046991.0,N
1501149675.7,286046990.5,N
1501149695.5,286046991.0,N
1501149715.4,286046989.1,N
1501149735.2,286046989.7,N
1501149755.0,286046989.8,N
1501149755.9,286046989.8,N
1501149775.8,286046987.8,N
1501149795.6,286046985.5,N
1501149815.4,286046985.8,N
1501149835.3,286046984.6,Y
1501149855.1,286046995.7,N
1501149875.8,286046996.1,N
1501149895.7,286046997.8,N
1501149915.5,286046998.0,N
1501149935.3,286046993.8,N
1501149955.2,286046994.0,N
1501149975.9,286046994.0,N
1501149995.7,286046994.6,N
1501150015.5,286046992.2,N
1501150035.4,286046992.0,N
1501150055.2,286046993.2,N
1501150075.0,286046993.2,N
1501150075.9,286046993.2,N
1501150095.8,286046993.1,N
1501150115.6,286046991.5,N
1501150135.4,286046990.2,N
1501150155.3,286046988.5,N
1501150175.1,286046989.3,N
1501150176.0,286046989.3,N
1501150195.8,286046988.5,N
1501150215.7,286046989.7,N
1501150235.5,286046986.9,N
1501150255.3,286046987.2,N
1501150275.1,286046987.5,N
1501150295.9,286046985.4,N
1501150315.7,286046986.6,N
1501150335.5,286046986.7,N
1501150355.4,286046983.9,Y
1501150375.2,286046995.4,N
1501150395.0,286046996.2,N
1501150395.9,286046996.2,N
1501150415.8,286046994.2,N
1501150435.6,286046994.2,N
1501150455.4,286046992.1,N
1501150475.3,286046992.1,N
1501150495.1,286046994.4,N
1501150515.8,286046994.2,N
1501150535.7,286046992.0,N
1501150555.5,286046994.7,N
1501150575.3,286046992.4,N
1501150595.2,286046992.6,N
1501150615.9,286046990.1,N
1501150635.7,286046992.7,N
1501150655.5,286046991.0,N
1501150675.4,286046990.5,N
1501150695.2,286046991.0,N
1501150715.0,286046990.5,N
1501150715.9,286046990.5,N
1501150735.8,286046992.8,N
1501150755.6,286046990.1,N
1501150775.4,286046993.1,N
1501150795.3,286046993.1,N
1501150815.1,286046990.1,N
1501150816.0,286046990.1,N
1501150835.8,286046991.1,N
1501150855.7,286046990.1,N
1501150875.5,286046991.0,N
1501150895.3,286046989.0,N
1501150915.2,286046987.0,N
1501150935.9,286046986.9,N
1501150955.7,286046987.8,N
1501150975.5,286046988.2,N
1501150995.4,286046986.0,N
1501151015.2,286046983.7,Y
1501151035.0,286046995.8,N
1501151035.9,286046995.8,N
1501151055.8,286046995.7,N
1501151075.6,286046996.0,N
1501151095.4,286046995.7,N
1501151115.3,286046995.8,N
1501151135.1,286046995.6,N
1501151155.8,286046996.4,N
1501151175.7,286046993.9,N
1501151195.5,286046993.8,N
1501151215.3,286046993.9,N
1501151235.2,286046994.7,N
1501151255.9,286046994.8,N
1501151275.7,286046990.4,N
1501151295.5,286046993.1,N
1501151315.4,286046988.7,N
1501151335.2,286046989.5,N
1501151355.0,286046986.9,N
1501151355.9,286046986.9,N
1501151375.8,286046990.0,N
1501151395.6,286046989.4,N
1501151415.4,286046987.0,N
1501151435.3,286046988.2,N
1501151455.1,286046985.5,N
1501151456.0,286046985.5,N
1501151475.8,286046985.6,N
1501151495.7,286046986.7,N
1501151515.5,286046984.4,Y
1501151535.3,286046993.5,N
1501151555.2,286046991.8,N
1501151575.9,286046994.6,N
1501151595.7,286046994.4,N
1501151615.6,286046993.0,N
1501151635.4,286046990.4,N
1501151655.2,286046991.3,N
1501151675.0,286046990.5,N
1501151675.9,286046990.5,N
1501151695.8,286046990.9,N
1501151715.6,286046991.1,N
1501151735.4,286046988.9,N
1501151755.3,286046989.3,N
1501151775.1,286046989.8,N
1501151795.8,286046987.5,N
1501151815.7,286046988.2,N
1501151835.5,286046987.1,N
1501151855.3,286046985.3,Y
1501151875.2,286046995.6,N
1501151895.9,286046996.2,N
1501151915.7,286046994.5,N
1501151935.6,286046993.9,N
1501151955.4,286046991.8,N
1501151975.2,286046994.7,N
1501151995.0,286046994.2,N
1501151995.9,286046994.2,N
1501152015.8,286046993.4,N
1501152035.6,286046994.0,N
1501152055.4,286046993.9,N
1501152075.3,286046995.8,N
1501152095.1,286046994.2,N
1501152096.0,286046994.2,N
1501152115.8,286046993.7,N
1501152135.7,286046993.7,N
1501152155.5,286046993.6,N
1501152175.3,286046994.2,N
1501152195.2,286046994.2,N
1501152215.9,286046993.9,N
1501152235.7,286046992.3,N
1501152255.5,286046990.2,N
1501152275.4,286046991.0,N
1501152295.2,286046990.4,N
1501152315.0,286046990.7,N
1501152315.9,286046990.7,N
1501152335.8,286046988.9,N
1501152355.6,286046989.8,N
1501152375.4,286046987.4,N
1501152395.3,286046989.6,N
1501152415.1,286046987.9,N
1501152416.0,286046987.9,N
1501152435.8,286046987.1,Y
1501152455.7,286046996.0,N
1501152475.5,286046996.0,N
1501152495.3,286046995.5,N
1501152515.2,286046994.0,N
1501152535.9,286046993.5,N
1501152555.7,286046993.9,N
1501152575.5,286046993.6,N
1501152595.4,286046992.1,N
1501152615.2,286046994.8,N
1501152635.0,286046993.2,N
1501152635.9,286046993.2,N
1501152655.8,286046994.0,N
1501152675.6,286046992.8,N
1501152695.4,286046993.0,N
1501152715.3,286046992.5,N
1501152735.1,286046994.0,N
1501152736.0,286046994.0,N
1501152755.8,286046991.3,N
1501152775.7,286046990.7,N
1501152795.5,286046990.9,N
1501152815.3,286046991.6,N
1501152835.1,286046988.6,N
1501152855.9,286046991.5,N
1501152875.7,286046990.9,N
1501152895.5,286046988.9,N
1501152915.4,286046988.7,Y
1501152935.2,286046999.0,N
1501152955.0,286046999.3,N
1501152955.9,286046999.3,N
1501152975.8,286046998.8,N
1501152995.6,286046996.8,N
1501153015.4,286046997.6,N
1501153035.3,286046995.5,N
1501153055.1,286046997.8,N
1501153056.0,286046997.8,N
1501153075.8,286046996.4,N
1501153095.7,286046993.4,N
1501153115.5,286046995.1,N
1501153135.3,286046996.3,N
1501153155.2,286046993.6,N
1501153175.9,286046994.0,N
1501153195.7,286046994.1,N
